W4RJF Weather Reports


Display with metric or nautical units.
time (UTC)temp
F
wind
direction
speed
MPH
gust
MPH
rain 1hr
in
rain 24hr
in
rain mn
in
humidity
%
barometer
mb
20260507122503 66 190 0.0 2.0 0.00 0.69 0.68 96 1010.2
20260507122004 66 215 0.0 2.0 0.00 0.69 0.68 96 1010.3
20260507121508 66 208 0.0 2.0 0.00 0.69 0.68 96 1010.4
20260507121004 66 211 0.0 2.0 0.00 0.69 0.68 96 1010.3
20260507120503 66 232 0.0 2.0 0.00 0.69 0.68 96 1010.5
20260507115507 66 202 0.0 2.0 0.00 0.69 0.68 96 1010.6
20260507115006 66 202 0.0 2.0 0.00 0.69 0.68 96 1010.6
20260507114522 66 194 0.0 2.0 0.00 0.69 0.68 96 1010.7
20260507114006 66 194 0.0 2.0 0.01 0.69 0.68 96 1010.8
20260507113509 66 194 0.0 2.0 0.01 0.69 0.68 96 1010.8
20260507113024 66 203 0.0 0.0 0.02 0.69 0.68 96 1010.8
20260507112507 66 203 0.0 2.0 0.02 0.69 0.68 96 1010.8
20260507112005 66 203 0.0 2.0 0.02 0.69 0.68 96 1010.7
20260507111004 66 199 0.0 0.0 0.03 0.69 0.68 96 1010.9
20260507110504 66 195 0.0 0.0 0.03 0.69 0.68 96 1010.9
20260507110015 65 190 0.0 0.0 0.03 0.69 0.68 96 1010.9
20260507105504 65 190 0.0 0.0 0.04 0.69 0.68 96 1010.7
20260507105003 65 190 0.0 0.0 0.04 0.69 0.68 96 1010.6
20260507104519 66 190 0.0 0.0 0.04 0.69 0.68 96 1010.6
20260507104005 65 190 0.0 0.0 0.03 0.68 0.67 96 1010.7
20260507103506 65 190 0.0 2.0 0.03 0.68 0.67 96 1010.6
20260507103025 65 190 0.0 2.0 0.02 0.67 0.66 96 1010.6
20260507102508 65 201 0.0 2.0 0.02 0.67 0.66 96 1010.4
20260507102009 66 190 1.0 2.0 0.03 0.67 0.66 96 1010.4
20260507101526 65 192 0.0 0.0 0.03 0.67 0.66 96 1010.6
20260507101009 65 192 0.0 0.0 0.02 0.66 0.65 96 1010.8
20260507100504 65 192 0.0 0.0 0.02 0.66 0.65 96 1010.7
20260507100010 65 192 0.0 2.0 0.02 0.66 0.65 96 1010.6
20260507095503 65 190 0.0 2.0 0.01 0.65 0.64 96 1010.4
20260507095008 65 194 0.0 0.0 0.01 0.65 0.64 96 1010.4
20260507094516 65 195 0.0 0.0 0.02 0.65 0.64 96 1010.5
20260507094011 65 194 0.0 0.0 0.03 0.65 0.64 96 1010.5
20260507093504 65 194 0.0 1.0 0.04 0.65 0.64 96 1010.6
20260507093021 65 194 0.0 2.0 0.07 0.65 0.64 96 1010.3
20260507092507 65 186 0.0 2.0 0.08 0.65 0.64 96 1010.3
20260507092008 65 194 0.0 2.0 0.08 0.64 0.63 96 1010.4
20260507091533 65 221 0.0 0.0 0.08 0.64 0.63 96 1010.6
20260507091009 65 202 0.0 2.0 0.09 0.64 0.63 96 1010.6
20260507090508 65 202 0.0 2.0 0.09 0.64 0.63 96 1010.5
20260507090028 65 203 0.0 2.0 0.10 0.64 0.63 96 1010.5
20260507085504 65 195 0.0 1.0 0.10 0.64 0.63 96 1010.7
20260507085004 65 195 0.0 1.0 0.11 0.64 0.63 96 1010.7
20260507084516 65 195 0.0 2.0 0.11 0.63 0.62 96 1010.9
20260507084003 65 195 0.0 2.0 0.11 0.62 0.61 96 1010.8
20260507083507 65 233 0.0 2.0 0.10 0.61 0.60 96 1010.7
20260507082507 65 186 0.0 3.0 0.07 0.57 0.56 96 1011.2
20260507082009 65 189 0.0 1.0 0.06 0.56 0.55 96 1011.2
20260507081523 65 163 0.0 2.0 0.06 0.56 0.55 96 1011.1
20260507081006 65 200 0.0 2.0 0.05 0.55 0.54 96 1011.0
20260507080507 65 306 0.0 3.0 0.05 0.55 0.54 96 1011.1
20260507080024 65 203 0.0 3.0 0.04 0.54 0.52 96 1010.9
20260507075510 65 180 0.0 2.0 0.04 0.54 0.52 95 1010.5
20260507075010 65 17 0.0 0.0 0.03 0.52 0.52 96 1011.2
20260507074525 65 15 0.0 0.0 0.02 0.52 0.51 95 1011.4
20260507074004 65 16 0.0 0.0 0.01 0.51 0.50 95 1011.3
20260507073507 65 15 0.0 1.0 0.01 0.51 0.50 95 1011.3
20260507073017 65 13 0.0 1.0 0.01 0.51 0.50 95 1011.4
20260507072507 65 190 0.0 2.0 0.01 0.50 0.49 95 1011.2
20260507072006 65 190 0.0 2.0 0.01 0.50 0.49 95 1011.1
20260507071528 65 228 0.0 0.0 0.01 0.50 0.49 95 1011.3
20260507071005 65 263 0.0 0.0 0.01 0.50 0.49 95 1011.6
20260507070506 65 315 0.0 0.0 0.01 0.50 0.49 95 1011.6
20260507070028 65 316 0.0 0.0 0.01 0.50 0.49 95 1011.8
20260507065507 65 316 0.0 0.0 0.01 0.50 0.49 95 1011.8
20260507065010 65 316 0.0 0.0 0.01 0.50 0.49 95 1011.7
20260507064544 65 317 0.0 0.0 0.01 0.50 0.49 95 1011.7
20260507064013 65 317 0.0 0.0 0.01 0.50 0.49 95 1011.7
20260507063513 65 317 0.0 0.0 0.01 0.50 0.49 95 1011.8
20260507063016 65 317 0.0 0.0 0.01 0.50 0.49 95 1011.9
20260507062512 65 317 0.0 0.0 0.00 0.49 0.48 95 1012.1
20260507062008 65 317 0.0 0.0 0.01 0.49 0.48 95 1012.1
20260507061520 65 317 0.0 0.0 0.01 0.49 0.48 95 1012.4
20260507061009 65 317 0.0 0.0 0.02 0.49 0.48 95 1012.5
20260507060507 65 317 0.0 1.0 0.10 0.49 0.48 94 1012.4
20260507060024 65 317 0.0 1.0 0.20 0.49 0.48 94 1012.3
20260507055508 65 288 0.0 1.0 0.23 0.49 0.48 94 1012.0
20260507055007 65 212 0.0 0.0 0.24 0.49 0.48 94 1012.0
20260507054508 65 212 0.0 2.0 0.28 0.49 0.48 94 1012.2
20260507054003 65 212 0.0 2.0 0.35 0.49 0.48 94 1012.1
20260507053502 65 212 0.0 2.0 0.42 0.49 0.48 94 1011.8
20260507052504 65 312 0.0 0.0 0.48 0.49 0.48 94 1011.9
20260507052004 65 312 0.0 2.0 0.47 0.48 0.47 94 1011.9
20260507051005 66 126 0.0 2.0 0.46 0.47 0.46 93 1011.5
20260507050507 66 115 0.0 2.0 0.38 0.39 0.38 93 1012.8
20260507050035 66 302 0.0 2.0 0.28 0.29 0.28 93 1014.2
20260507045512 66 328 0.0 2.0 0.25 0.26 0.25 93 1013.7
20260507045009 67 351 0.0 2.0 0.24 0.25 0.24 92 1013.4
20260507044524 67 352 0.0 2.0 0.20 0.21 0.20 92 1013.7
20260507044010 67 12 0.0 0.0 0.13 0.14 0.13 91 1013.8
20260507043504 67 12 0.0 0.0 0.06 0.07 0.06 89 1013.9
20260507042504 69 276 0.0 2.0 0.00 0.01 0.00 85 1013.4
20260507042007 69 216 0.0 1.0 0.00 0.01 0.00 84 1013.2
20260507041004 69 192 0.0 2.0 0.00 0.01 0.00 83 1013.0
20260507040505 69 178 0.0 2.0 0.00 0.01 0.00 83 1013.0
20260507035505 69 298 0.0 3.0 0.00 0.01 0.01 81 1013.0
20260507035011 69 214 0.0 3.0 0.00 0.01 0.01 81 1012.9
20260507034524 70 273 0.0 2.0 0.00 0.01 0.01 79 1012.8
20260507034009 71 202 0.0 2.0 0.00 0.01 0.01 77 1012.4
20260507033509 72 194 0.0 1.0 0.00 0.01 0.01 73 1012.3
20260507033024 72 226 0.0 1.0 0.00 0.01 0.01 71 1012.5
20260507032510 72 226 0.0 0.0 0.00 0.01 0.01 71 1012.7
20260507032003 72 229 0.0 1.0 0.00 0.01 0.01 71 1012.7
20260507031003 73 198 0.0 2.0 0.00 0.01 0.01 70 1012.8
20260507030507 73 202 0.0 0.0 0.00 0.01 0.01 69 1012.8
20260507030027 72 202 0.0 2.0 0.00 0.01 0.01 70 1012.7
20260507025505 72 198 0.0 2.0 0.00 0.01 0.01 70 1012.6
20260507025006 72 196 0.0 2.0 0.00 0.01 0.01 71 1012.5
20260507024008 72 230 0.0 3.0 0.00 0.01 0.01 70 1012.4
20260507023506 72 204 0.0 2.0 0.00 0.01 0.01 71 1012.3
20260507023022 72 196 0.0 2.0 0.00 0.01 0.01 71 1012.2
20260507022509 73 196 0.0 2.0 0.00 0.01 0.01 70 1012.3
20260507022008 72 200 0.0 2.0 0.00 0.01 0.01 70 1012.3
20260507021526 72 193 0.0 2.0 0.00 0.01 0.01 71 1012.3
20260507021004 72 196 0.0 2.0 0.00 0.01 0.01 70 1012.2
20260507020504 72 199 0.0 0.0 0.00 0.01 0.01 70 1012.2
20260507015508 72 194 0.0 2.0 0.00 0.01 0.01 70 1012.3
20260507015008 72 193 0.0 2.0 0.00 0.01 0.01 71 1012.2
20260507014009 72 193 0.0 2.0 0.00 0.01 0.01 71 1012.3
20260507013507 72 190 0.0 0.0 0.00 0.01 0.01 72 1012.4
20260507012510 71 189 0.0 0.0 0.00 0.01 0.01 72 1012.3
20260507012009 71 189 0.0 1.0 0.00 0.01 0.01 74 1012.3
20260507011525 71 190 0.0 1.0 0.00 0.01 0.01 75 1012.3
20260507011009 71 157 0.0 0.0 0.00 0.01 0.01 73 1012.3
20260507010509 71 157 0.0 0.0 0.00 0.01 0.01 75 1012.3
20260507010038 71 157 0.0 0.0 0.00 0.01 0.01 75 1012.3
20260507005505 71 157 0.0 0.0 0.00 0.01 0.01 74 1012.3
20260507005009 71 157 0.0 0.0 0.00 0.01 0.01 74 1012.3
20260507004006 71 157 0.0 0.0 0.00 0.01 0.01 73 1012.4
20260507003506 72 157 0.0 0.0 0.00 0.01 0.01 73 1012.4
20260507003025 72 157 0.0 0.0 0.00 0.01 0.01 72 1012.4
20260507002507 72 157 0.0 0.0 0.00 0.01 0.01 72 1012.3
20260507002016 72 157 0.0 0.0 0.00 0.01 0.01 72 1012.1
20260507001010 73 157 0.0 0.0 0.00 0.01 0.01 69 1012.1
20260507000508 73 157 0.0 0.0 0.00 0.01 0.01 70 1012.2
20260507000026 73 157 0.0 0.0 0.00 0.01 0.01 69 1012.3
20260506235508 74 157 0.0 0.0 0.00 0.01 0.01 69 1012.2
20260506235011 74 157 0.0 0.0 0.00 0.01 0.01 67 1012.0
20260506234519 74 157 0.0 5.0 0.00 0.01 0.01 66 1011.9
20260506234005 75 157 0.0 5.0 0.00 0.01 0.01 66 1011.8
20260506233507 75 210 0.0 0.0 0.00 0.01 0.01 65 1011.9
20260506233024 76 210 0.0 2.0 0.00 0.01 0.01 65 1012.0
20260506232507 76 216 0.0 2.0 0.00 0.01 0.01 64 1011.9
20260506232008 76 216 0.0 2.0 0.00 0.01 0.01 64 1012.0
20260506231012 76 194 0.0 3.0 0.00 0.01 0.01 63 1011.9
20260506230028 76 177 1.0 2.0 0.00 0.01 0.01 63 1012.0
20260506225508 77 238 0.0 2.0 0.00 0.01 0.01 65 1012.0
20260506225008 77 248 0.0 2.0 0.00 0.01 0.01 63 1012.0
20260506224525 76 215 0.0 2.0 0.00 0.01 0.01 64 1012.0
20260506224006 76 199 0.0 2.0 0.00 0.01 0.01 64 1011.8
20260506223504 77 190 1.0 4.0 0.00 0.01 0.01 63 1011.7
20260506223019 77 190 1.0 4.0 0.00 0.01 0.01 63 1011.8
20260506222507 77 199 0.0 3.0 0.00 0.01 0.01 63 1011.5
20260506222005 77 213 1.0 3.0 0.00 0.01 0.01 63 1011.4
20260506221003 77 219 1.0 6.0 0.00 0.01 0.01 63 1011.6
20260506220503 77 215 2.0 6.0 0.00 0.01 0.01 63 1011.5
20260506220012 77 207 1.0 3.0 0.00 0.01 0.01 63 1011.5
20260506215503 76 202 1.0 3.0 0.00 0.01 0.01 66 1011.6
20260506215005 76 252 0.0 3.0 0.00 0.01 0.01 67 1011.6
20260506214006 76 198 2.0 4.0 0.00 0.01 0.01 67 1011.8
20260506213508 76 196 0.0 4.0 0.00 0.01 0.01 67 1011.8
20260506213016 75 226 0.0 3.0 0.00 0.01 0.01 67 1011.9
20260506212507 75 246 0.0 3.0 0.00 0.01 0.01 70 1012.0
20260506212007 76 209 0.0 2.0 0.00 0.01 0.01 68 1011.8
20260506211524 75 202 1.0 3.0 0.00 0.01 0.01 70 1012.1
20260506211007 76 193 0.0 3.0 0.00 0.01 0.01 70 1012.1
20260506210503 75 194 0.0 5.0 0.00 0.01 0.01 73 1012.1
20260506205504 74 257 0.0 5.0 0.00 0.01 0.01 74 1011.9
20260506205004 74 198 0.0 2.0 0.00 0.01 0.01 77 1012.0
20260506204008 73 253 0.0 2.0 0.00 0.01 0.01 79 1012.1
20260506203508 72 279 0.0 0.0 0.01 0.01 0.01 80 1012.2
20260506202508 72 268 0.0 0.0 0.01 0.01 0.01 82 1012.5
20260506202008 71 263 0.0 0.0 0.01 0.01 0.01 81 1012.2
20260506201528 71 263 0.0 2.0 0.01 0.01 0.01 81 1012.2
20260506201008 71 261 0.0 2.0 0.01 0.01 0.01 83 1012.3
20260506200509 70 192 0.0 2.0 0.01 0.01 0.01 85 1011.6
20260506200021 70 192 0.0 2.0 0.01 0.01 0.01 85 1011.9
20260506195503 69 197 0.0 2.0 0.01 0.01 0.01 86 1011.9
20260506195004 69 183 0.0 2.0 0.01 0.01 0.01 88 1012.4
20260506194509 68 198 1.0 2.0 0.01 0.01 0.01 86 1013.2
20260506194004 68 207 0.0 2.0 0.01 0.01 0.01 86 1013.4
20260506193504 69 214 0.0 2.0 0.00 0.00 0.00 84 1013.5
20260506192504 71 242 0.0 4.0 0.00 0.00 0.00 78 1013.7
20260506192007 73 188 0.0 4.0 0.00 0.00 0.00 71 1013.7
20260506191006 75 319 1.0 4.0 0.00 0.00 0.00 63 1014.3
20260506190508 76 277 1.0 4.0 0.00 0.00 0.00 63 1014.5
20260506190029 76 286 1.0 4.0 0.00 0.00 0.00 61 1014.4
20260506185508 77 211 0.0 6.0 0.00 0.00 0.00 62 1014.2
20260506185006 77 205 1.0 6.0 0.00 0.00 0.00 60 1014.2
20260506184524 77 236 1.0 9.0 0.00 0.00 0.00 59 1014.2
20260506184004 77 186 2.0 9.0 0.00 0.00 0.00 59 1014.2
20260506183503 77 190 2.0 4.0 0.00 0.00 0.00 60 1014.1
20260506182504 77 208 1.0 5.0 0.00 0.00 0.00 59 1014.3
20260506182008 77 248 1.0 5.0 0.00 0.00 0.00 59 1014.3
20260506181008 78 209 1.0 6.0 0.00 0.00 0.00 59 1014.1
20260506180509 78 225 2.0 6.0 0.00 0.00 0.00 59 1014.2
20260506175511 78 233 2.0 6.0 0.00 0.00 0.00 59 1014.4
20260506175008 77 192 0.0 6.0 0.00 0.00 0.00 62 1014.5
20260506174525 77 178 2.0 8.0 0.00 0.00 0.00 60 1014.5
20260506174007 77 255 3.0 8.0 0.00 0.00 0.00 60 1014.5
20260506173510 77 165 2.0 9.0 0.00 0.00 0.00 61 1014.5
20260506172504 76 191 2.0 5.0 0.00 0.00 0.00 62 1014.5
20260506172004 76 188 1.0 6.0 0.00 0.00 0.00 63 1014.6
20260506171005 75 192 2.0 5.0 0.00 0.00 0.00 62 1014.8
20260506170511 74 261 0.0 4.0 0.00 0.00 0.00 65 1014.9
20260506165508 73 212 1.0 4.0 0.00 0.00 0.00 65 1014.9
20260506165008 73 277 1.0 3.0 0.00 0.00 0.00 67 1014.9
20260506164525 72 202 0.0 2.0 0.00 0.00 0.00 67 1014.9
20260506164009 72 204 0.0 2.0 0.00 0.00 0.00 66 1015.1
20260506163509 72 205 0.0 4.0 0.00 0.00 0.00 66 1015.1
20260506163024 72 183 1.0 4.0 0.00 0.00 0.00 64 1015.1
20260506162509 72 201 0.0 5.0 0.00 0.00 0.00 65 1015.2
20260506162003 72 196 2.0 5.0 0.00 0.00 0.00 64 1015.0
20260506161005 72 186 1.0 4.0 0.00 0.00 0.00 65 1015.1
20260506160507 72 205 0.0 2.0 0.00 0.00 0.00 65 1015.1
20260506155508 72 213 1.0 4.0 0.00 0.00 0.00 65 1015.0
20260506155009 72 190 1.0 4.0 0.00 0.00 0.00 65 1014.9
20260506154009 71 198 1.0 7.0 0.00 0.00 0.00 66 1014.9
20260506153508 70 198 1.0 7.0 0.00 0.00 0.00 66 1014.9
20260506152510 70 192 2.0 7.0 0.00 0.00 0.00 67 1014.9
20260506152011 70 214 1.0 7.0 0.00 0.00 0.00 67 1014.9
20260506151527 70 199 2.0 6.0 0.00 0.00 0.00 67 1014.7
20260506151010 70 157 2.0 8.0 0.00 0.00 0.00 67 1014.6
20260506150505 70 219 1.0 8.0 0.00 0.00 0.00 67 1014.7
20260506145507 70 180 1.0 5.0 0.00 0.00 0.00 66 1015.0
20260506145007 70 249 0.0 4.0 0.00 0.00 0.00 67 1015.0
20260506144013 70 188 2.0 4.0 0.00 0.00 0.00 66 1014.9
20260506143510 70 162 1.0 4.0 0.00 0.00 0.00 66 1014.9
20260506142511 69 266 0.0 6.0 0.00 0.00 0.00 69 1015.2
20260506142014 69 196 1.0 6.0 0.00 0.00 0.00 68 1015.3
20260506141011 68 241 2.0 6.0 0.00 0.00 0.00 69 1015.3
20260506140510 68 194 1.0 6.0 0.00 0.00 0.00 69 1015.3
20260506140032 68 219 0.0 5.0 0.00 0.00 0.00 70 1015.4
20260506135506 68 239 0.0 7.0 0.00 0.00 0.00 71 1015.3
20260506135006 68 190 1.0 7.0 0.00 0.00 0.00 71 1015.2
20260506134007 67 210 1.0 3.0 0.00 0.00 0.00 74 1015.4
20260506133506 66 193 0.0 2.0 0.00 0.00 0.00 75 1015.5
20260506133028 66 200 0.0 0.0 0.00 0.00 0.00 77 1015.7
20260506132508 65 200 0.0 1.0 0.00 0.00 0.00 78 1015.7
20260506132008 65 200 0.0 3.0 0.00 0.00 0.00 77 1015.7
20260506131522 65 198 0.0 3.0 0.00 0.00 0.00 77 1015.6
20260506131007 65 204 0.0 2.0 0.00 0.00 0.00 77 1015.6
20260506130512 65 203 0.0 2.0 0.00 0.00 0.00 78 1015.5
20260506130026 65 189 0.0 3.0 0.00 0.00 0.00 78 1015.2
20260506125507 64 186 0.0 3.0 0.00 0.00 0.00 78 1015.1
20260506125012 64 187 0.0 2.0 0.00 0.00 0.00 79 1015.0
20260506124006 64 196 1.0 3.0 0.00 0.00 0.00 79 1014.9
20260506123504 64 196 1.0 3.0 0.00 0.00 0.00 80 1014.8
20260506123019 63 195 0.0 3.0 0.00 0.00 0.00 81 1015.0